TimeCST,TemperatureF,Dew PointF,Humidity,Sea Level PressureIn,VisibilityMPH,Wind Direction,Wind SpeedMPH,Gust SpeedMPH,PrecipitationIn,Events,Conditions,WindDirDegrees,DateUTC
12:53 AM,30.9,27.0,85,30.46,10.0,WSW,3.5,-,N/A,,Clear,240,2012-11-17 06:53:00
1:53 AM,30.9,27.0,85,30.45,10.0,Calm,Calm,-,N/A,,Clear,0,2012-11-17 07:53:00
2:53 AM,28.9,26.1,89,30.45,10.0,Calm,Calm,-,N/A,,Clear,0,2012-11-17 08:53:00
3:53 AM,30.0,28.0,92,30.46,9.0,Calm,Calm,-,N/A,,Clear,0,2012-11-17 09:53:00
4:53 AM,28.0,25.0,88,30.47,8.0,Calm,Calm,-,N/A,,Clear,0,2012-11-17 10:53:00
5:53 AM,30.0,27.0,88,30.48,7.0,Calm,Calm,-,N/A,,Clear,0,2012-11-17 11:53:00
6:53 AM,28.9,26.1,89,30.49,6.0,Calm,Calm,-,N/A,,Clear,0,2012-11-17 12:53:00
7:53 AM,32.0,28.9,88,30.51,5.0,Calm,Calm,-,N/A,,Clear,0,2012-11-17 13:53:00
8:53 AM,41.0,34.0,76,30.51,7.0,ENE,3.5,-,N/A,,Clear,60,2012-11-17 14:53:00
9:53 AM,46.0,35.1,66,30.52,8.0,NNW,3.5,-,N/A,,Clear,330,2012-11-17 15:53:00
10:53 AM,52.0,34.0,50,30.50,10.0,East,5.8,-,N/A,,Clear,80,2012-11-17 16:53:00
11:53 AM,55.0,33.1,43,30.46,10.0,East,4.6,-,N/A,,Clear,80,2012-11-17 17:53:00
1:53 PM,59.0,34.0,39,30.41,10.0,Variable,4.6,-,N/A,,Clear,0,2012-11-17 19:53:00
2:53 PM,59.0,30.9,35,30.40,10.0,Calm,Calm,-,N/A,,Clear,0,2012-11-17 20:53:00
3:53 PM,57.9,34.0,41,30.40,10.0,Calm,Calm,-,N/A,,Clear,0,2012-11-17 21:53:00
4:53 PM,52.0,37.0,57,30.40,10.0,Calm,Calm,-,N/A,,Clear,0,2012-11-17 22:53:00
5:53 PM,48.0,33.1,56,30.40,10.0,Calm,Calm,-,N/A,,Clear,0,2012-11-17 23:53:00
6:53 PM,44.1,33.1,65,30.40,10.0,ESE,3.5,-,N/A,,Clear,110,2012-11-18 00:53:00
7:53 PM,37.9,30.9,76,30.41,10.0,Calm,Calm,-,N/A,,Clear,0,2012-11-18 01:53:00
8:53 PM,34.0,30.0,85,30.41,10.0,WNW,3.5,-,N/A,,Clear,290,2012-11-18 02:53:00
9:53 PM,35.1,30.0,82,30.43,10.0,Calm,Calm,-,N/A,,Clear,0,2012-11-18 03:53:00
10:53 PM,33.1,28.9,85,30.42,10.0,Calm,Calm,-,N/A,,Clear,0,2012-11-18 04:53:00
11:53 PM,33.1,28.9,85,30.42,10.0,Calm,Calm,-,N/A,,Clear,0,2012-11-18 05:53:00